Regional Weather Roundup
Issued by NWS Kansas City/Pleasant Hill, MO

Home | Current Version | Previous Version | Graphics & Text | Print | Product List | Glossary Off
Versions: 1 2 3 4 5 6 7 8 9 10 11 12 13 14 15 16 17 18 19 20 21 22 23 24 25 26 27 28 29 30 31 32 33 34 35 36 37 38 39 40 41 42 43 44 45 46 47 48 49 50

000
ASUS43 KEAX 040310
RWREAX

WEATHER ROUNDUP FOR EASTERN KANSAS AND NORTHWEST MISSOURI
NATIONAL WEATHER SERVICE KANSAS CITY/PLEASANT HILL MO
1000 PM CDT THU SEP 03 2015

KSZ040-057-103>105-MOZ028-029-037-043-040400-
...KANSAS CITY METROPOLITAN AREA...

CITY           SKY/WX    TMP DP  RH WIND       PRES   REMARKS
K.C. INTL      CLEAR     73  67  81 S9        29.91R
K.C. DOWNTOWN  CLEAR     81  68  64 S7        29.90R
LEES SUMMIT    CLEAR     79  66  64 S7        29.93R
OLATHE - IXD   PTCLDY    74  69  85 S7        29.93R
OLATHE - OJC   PTCLDY    74  68  81 S6        29.92R
LAWRENCE       PTCLDY    74  69  85 SE6       29.91R

$$

MOZ001>008-011>017-020>025-030>033-038>040-044>046-053-054-040400-
...NORTHERN AND CENTRAL MISSOURI...

CITY           SKY/WX    TMP DP  RH WIND       PRES   REMARKS
ST. JOSEPH     CLEAR     77  69  76 S7        29.89R
MOSBY          CLEAR     77  68  73 CALM      29.91R
WARRENSBURG    CLEAR     75  68  78 S3        29.93R
WHITEMAN AFB   CLEAR     77  69  74 S5        29.92R
CLINTON        CLEAR     77  72  83 CALM      29.94R
SEDALIA        CLEAR     76  69  79 S5        29.95R
WARSAW         NOT AVBL
CHILLICOTHE      N/A     77  70  79 S3        29.92R
KIRKSVILLE     CLEAR     75  67  76 S5        29.94R

$$

MOZ041-047>049-056>058-063>065-088>090-097-040400-
...EASTERN AND SOUTHERN MISSOURI...

CITY           SKY/WX    TMP DP  RH WIND       PRES   REMARKS
ST. LOUIS INTL PTCLDY    84  67  56 CALM      29.96R
SPIRIT OF STL  CLEAR     74  72  93 CALM      29.94R
COLUMBIA       CLEAR     78  69  73 SE6       29.95R
JEFFERSON CITY CLEAR     77  71  82 SE5       29.93R
ROLLA          CLEAR     76  67  73 S7        29.96R
OSAGE BEACH    CLEAR     77  66  69 S3        29.96R
SPRINGFIELD    CLEAR     76  68  76 SE6       29.96R
BRANSON        CLEAR     73  68  83 CALM      29.99R
JOPLIN         PTCLDY    77  70  79 E3        29.94R
WEST PLAINS    CLEAR     73  69  87 CALM      30.01R

$$

IAZ060-094-KSZ022-034>040-054-083-096-NEZ052-066-093-040400-
...KANSAS...SOUTHEAST NEBRASKA AND IOWA...

CITY           SKY/WX    TMP DP  RH WIND       PRES   REMARKS
TOPEKA         PTCLDY    79  68  69 S9        29.89R
MANHATTAN      MOCLDY    80  65  59 S8        29.86R
EMPORIA        PTCLDY    76  67  73 SE10      29.90R
CHANUTE        PTCLDY    76  69  79 SE6       29.92R
WICHITA        CLOUDY    81  66  60 SE14      29.87R
OMAHA          CLEAR     81  71  71 SE13      29.84R
LINCOLN        PTCLDY    83  67  58 S13       29.83R
FALLS CITY     CLEAR     75  68  78 S8        29.87R
LAMONI         CLEAR     78  69  73 S7        29.91R
DES MOINES     PTCLDY    79  71  76 S6        29.89R

$$



USA.gov is the U.S. government's official web portal to all federal, state and local government web resources and services.